This is the latest recevied weather packets stored in our database for station/object VR2HK-13. If no packets are shown the sender has not sent any weather packets the latest 10 day(s).
| Time | Temp. | Humidity | Pressure | Rain* | Wind** | Luminosity | Snow |
|---|---|---|---|---|---|---|---|
| 1777765770 | 27.22° C | 79% | 1011.3 hPa | 19.05 mm | - | - | - |
| 1777765469 | 26.67° C | 80% | 1011.4 hPa | 19.05 mm | - | - | - |
| 1777765460 | 26.67° C | 80% | 1011.4 hPa | 19.05 mm | - | - | - |
| 1777765169 | 26.67° C | 81% | 1011.4 hPa | 19.56 mm | - | - | - |
| 1777765151 | 26.67° C | 81% | 1011.3 hPa | 19.56 mm | - | - | - |
| 1777764870 | 26.67° C | 80% | 1011.4 hPa | 20.32 mm | - | - | - |
| 1777764841 | 26.67° C | 80% | 1011.4 hPa | 20.32 mm | - | - | - |
| 1777764569 | 26.67° C | 81% | 1011.3 hPa | 21.08 mm | - | - | - |
| 1777764531 | 26.67° C | 81% | 1011.3 hPa | 21.08 mm | - | - | - |
| 1777764269 | 26.11° C | 83% | 1011.1 hPa | 22.1 mm | - | - | - |
| 1777764221 | 26.11° C | 83% | 1011.1 hPa | 22.1 mm | - | - | - |
| 1777763969 | 26.11° C | 84% | 1011.1 hPa | 21.84 mm | - | - | - |
| 1777763911 | 25.56° C | 84% | 1011.2 hPa | 21.59 mm | - | - | - |
| 1777763669 | 25.56° C | 84% | 1011.2 hPa | 21.84 mm | - | - | - |
| 1777763600 | 25.56° C | 85% | 1011.1 hPa | 20.83 mm | - | - | - |
| 1777763369 | 25.56° C | 86% | 1011.2 hPa | 20.32 mm | - | - | - |
| 1777763290 | 25.56° C | 86% | 1011.2 hPa | 19.3 mm | - | - | - |
| 1777763069 | 25° C | 86% | 1011.2 hPa | 18.54 mm | - | - | - |
| 1777762981 | 25° C | 86% | 1011.1 hPa | 18.54 mm | - | - | - |
| 1777762769 | 25° C | 86% | 1011.2 hPa | 18.54 mm | - | - | - |
| 1777762671 | 25° C | 86% | 1011.2 hPa | 18.54 mm | - | - | - |
| 1777762470 | 25° C | 87% | 1011.3 hPa | 16.26 mm | - | - | - |
| 1777762360 | 25° C | 87% | 1011.2 hPa | 16.76 mm | - | - | - |
| 1777762169 | 24.44° C | 87% | 1011.2 hPa | 14.22 mm | - | - | - |
| 1777762051 | 24.44° C | 87% | 1011.2 hPa | 13.72 mm | - | - | - |
* Rain latest hour (hover to see other rain measurements)
** Current wind speed in m/s (hover to see current wind gust speed)